Showing default

USA 270, 41744

Orbit data source: Space-Track

USA 270, 41744 is a payload satellite owned by USAF AFSPC (US) in GEO that was launched on Fri, 19 Aug 2016 UTC via a DELTA 4M+(4,2) launch vehicle from the Air Force Eastern Test Range (AFETR). Payload-class satellites include a variety of spacecraft equipped with specific instruments for various scientific and technological missions. These include communications satellites like Starlink; space stations such as the ISS; scientific satellites like the Hubble; Earth observation satellites from companies like Planet Labs, Umbra, and HawkEye 360; GPS; miniature CubeSats for education and research; and military/defense satellites.

Not visible in the next 10 days
Identifier
41744, 2016-052A
Orbit
GEO
Country
Flag of USUS
Related business
Manufacturer
OATK SSG
Mission
Operational Defense Classified
Bus & Motor
GEOSTAR-1, AOCS
Mass
500 kg wet, 500 kg dry
Launch date (UTC)
2016-08-19 (9 years ago)
Launch vehicle
DELTA 4M+(4,2)
Launch site
Air Force Eastern Test Range (AFETR)
Object type
Payload
Rocket body
Debris
Shape & HBR
Box + 2 Pan, 2.5 m
Radar Cross Section
7.621 m²

Expand to show TLE details & history
Last TLE update: 2 weeks ago

TLE from 2 weeks ago
0 USA 270
1 41744U 16052A   25244.33531779 -.00000356  00000-0  00000+0 0  9993
2 41744   3.4514  80.9056 0085284 104.1213  40.1074  1.00236003 25239
Epoch: 2025-09-01T08:02Z
TLE epoch observation values (Epoch: 2025-09-01T08:02:51.457Z)
Latitude
2.00646°
Longitude
124.35724°
Altitude
35,522.279 km
Speed
3.094 km/s
True Right ascension
15h 03m 15s
True Declination
2° 00' 16"
Sunlit
Object was in daylight at epoch
Visualization orbit readout
Latitude
Unknown
Longitude
Unknown
Altitude
Unknown
Speed
Unknown
Apparent Right ascension
Unknown
Apparent Declination
Unknown
Sunlit
N/A
Visualization observer readout
Local Sidereal Time
01:46:02
Azimuth
Unknown
Elevation
Unknown
Doppler factor
Unknown
Orbital elements
Apogee altitude
36,157.386 km
Perigee altitude
35,438.001 km
Semi-major axis
42,175.831 km
Eccentricity
0.00853
Inclination
3.4514°
RAAN
80.9056°
Arg. of periapsis
104.1213°
True anomaly
40.74215°
Mean anomaly
40.1074°
Eccentric anomaly
40.42426°
Mean motion
0.25058 °/min
Orbital period
1,436.66 mins
BSTAR
0
Loading maneuver chart data...
Computing Atmospheric mass density...
Loading historical data...
Loading historical data...
Loading historical data...
Loading historical data...
Loading historical data...
Loading historical data...
Loading historical data...
Other satellites on launch #52 in the year 2016 (2016-08-19 UTC)

Documentation

Showing up to 5 results
|